Wind_Speed
43 41 40 39 39 38 37 37 37 36 36 35 35 35 35 35 35 35 36 37 37 38 38 39 40 40 41 42 43 44 45 46 47 47 48 49 50 51 52 53 53 54 56
44 43 42 41 40 38 38 37 37 37 36 36 35 35 35 35 36 36 36 37 38 38 39 40 41 41 42 43 44 44 46 47 48 48 49 50 50 52 53 53 55 56 57
44 43 42 41 40 39 38 38 37 37 37 36 35 35 36 36 36 36 37 38 38 39 40 40 41 42 43 43 44 45 46 47 49 49 50 50 51 52 53 55 56 57 57
45 43 43 42 40 40 39 39 38 38 37 36 36 36 36 36 36 37 37 39 39 40 40 41 42 42 43 44 45 46 47 48 49 50 50 51 52 53 54 55 56 57 58
45 44 43 42 41 40 40 39 38 37 37 36 36 36 36 36 36 37 38 39 40 40 40 41 42 43 44 45 46 47 48 49 50 50 50 51 52 53 54 56 56 57 58
45 44 43 42 42 41 40 39 38 37 36 36 36 36 36 36 37 38 39 39 39 40 40 41 42 43 44 45 46 47 48 49 49 50 50 51 52 54 55 57 58 58 58
45 44 43 42 41 40 40 39 38 38 37 37 37 36 37 37 38 38 39 39 39 39 40 41 42 43 44 45 46 47 48 48 49 49 50 51 53 54 56 57 59 59 60
43 42 42 42 41 40 39 39 39 38 37 37 36 36 37 37 38 38 38 38 38 39 39 41 42 43 44 45 46 46 47 47 48 49 51 52 54 55 56 58 59 60 61
43 42 42 41 40 40 39 39 38 38 37 37 36 36 37 37 37 37 37 38 38 39 40 41 42 43 44 45 45 46 47 47 49 50 52 53 55 56 58 59 60 60 60
42 42 42 41 40 40 39 39 38 37 37 36 36 36 36 36 37 37 37 38 38 39 40 41 42 43 44 44 45 46 47 48 49 51 52 54 56 57 58 59 60 60 60
42 42 42 41 40 39 39 39 38 37 37 36 37 37 36 36 37 37 37 38 39 39 40 41 42 43 44 45 46 47 47 49 50 52 53 55 57 58 58 59 60 60 59
42 41 41 41 40 40 39 39 38 37 37 37 37 37 37 36 37 37 38 38 39 39 40 41 42 43 44 45 46 48 49 50 51 53 54 56 57 57 57 59 60 59 56
41 41 40 40 40 39 39 38 37 37 37 37 36 36 36 36 36 38 38 38 39 39 40 41 42 43 44 46 47 49 50 51 52 54 55 56 57 57 58 59 59 56 53
41 40 40 39 39 38 38 37 37 37 36 36 36 36 35 36 36 37 37 37 38 39 40 41 42 43 45 47 48 49 50 52 53 54 55 56 56 57 58 58 56 52 51
42 41 40 39 38 37 36 36 36 35 35 35 36 36 36 36 36 36 36 37 38 39 40 41 42 44 46 47 49 50 51 52 53 54 55 56 57 58 57 55 53 50 49
42 41 40 39 37 36 35 35 34 35 35 35 35 35 35 35 36 36 37 38 39 40 41 42 43 45 47 48 49 50 51 52 53 54 55 56 57 57 55 53 51 49 47
40 39 39 38 37 35 35 35 35 34 34 34 35 34 34 35 35 36 37 39 40 40 42 43 44 46 47 48 49 50 51 52 53 54 55 56 56 55 53 51 48 47 45
40 39 38 37 36 35 34 34 34 34 34 34 34 34 34 35 35 36 38 39 39 40 42 43 45 46 47 48 49 50 51 52 53 53 54 55 54 53 51 49 47 45 42
40 39 37 36 35 35 34 34 34 35 35 35 34 34 35 35 36 37 38 38 39 40 42 44 45 46 47 48 49 50 51 51 52 53 53 54 53 52 49 46 44 42 39
40 39 38 37 36 35 35 35 35 35 35 34 34 35 35 36 37 37 38 39 39 41 42 43 44 45 47 48 48 49 50 50 51 53 53 53 52 49 46 44 42 39 36
40 40 38 37 36 36 36 36 35 35 35 35 35 35 36 36 36 37 38 38 39 41 42 43 44 46 47 47 47 48 49 50 51 52 52 51 49 45 43 41 38 36 32
40 40 38 37 36 36 35 35 34 34 35 35 35 35 35 35 36 36 37 38 39 40 41 43 44 45 45 45 46 47 48 50 51 51 49 48 45 41 39 38 35 32 29
40 39 38 37 36 36 35 34 34 34 34 34 34 34 34 34 35 36 37 38 38 40 41 42 43 43 44 44 45 46 48 49 49 48 46 44 41 38 36 34 31 29 27
39 38 37 37 35 34 34 34 34 33 33 33 33 34 34 34 35 36 37 37 38 39 40 42 42 42 42 43 45 46 47 48 47 45 43 40 37 35 33 30 28 26 25
37 37 37 35 34 34 33 32 32 31 31 32 33 33 34 34 35 36 36 37 38 39 40 41 42 42 42 43 44 45 47 46 44 41 40 37 34 32 30 28 27 25 24
37 36 35 35 34 34 33 32 31 31 31 32 32 33 33 34 35 35 36 37 38 39 40 41 42 42 43 43 44 45 45 43 40 39 38 36 33 30 28 27 25 24 22
Wind_Direction
244 246 249 252 255 258 261 264 267 270 272 274 277 280 283 286 289 291 293 296 298 300 301 301 302 303 304 304 305 305 306 307 308 309 310 310 310 311 311 311 311 311 311
244 246 248 251 255 258 260 263 266 269 271 274 276 279 283 285 288 291 293 295 297 299 300 301 301 302 303 304 305 305 306 307 308 310 310 310 311 311 311 311 311 312 312
244 246 248 251 254 256 259 262 265 268 271 273 276 279 282 285 287 290 292 295 297 298 299 300 301 302 303 304 304 305 306 307 309 310 310 310 311 311 312 312 312 313 313
244 245 248 250 253 256 259 261 264 267 270 272 275 278 281 284 287 289 292 294 296 297 298 299 300 302 303 304 305 306 307 307 309 309 310 310 311 311 312 312 313 314 314
243 245 248 251 253 256 258 261 264 266 269 272 275 278 281 283 286 289 291 293 295 296 297 299 300 302 304 305 306 306 307 307 308 309 310 311 312 312 313 313 314 314 314
243 245 248 250 253 255 258 260 263 265 268 271 274 277 280 283 286 288 291 293 294 296 297 299 301 303 304 305 306 307 307 308 308 309 311 311 312 313 313 314 315 315 315
243 245 247 250 253 255 257 259 262 265 267 270 273 277 280 283 286 288 290 292 294 296 298 299 301 303 304 306 307 307 308 308 309 310 311 312 313 313 314 315 316 316 316
242 245 247 250 253 255 257 259 261 264 267 270 274 277 280 283 286 288 290 292 294 296 298 300 302 304 305 306 308 308 309 309 310 310 311 312 313 314 315 315 316 317 317
242 244 248 250 251 253 256 259 262 265 268 271 274 277 279 283 286 288 290 292 294 296 298 300 302 303 305 307 308 309 310 310 310 311 312 313 314 315 316 316 317 318 318
241 244 246 248 250 252 255 258 261 265 268 271 275 277 280 284 286 289 290 292 294 296 298 300 302 304 305 307 308 309 310 310 311 312 313 314 315 316 317 317 318 319 318
241 243 245 247 249 252 255 258 261 264 268 271 274 278 281 284 287 289 290 291 293 296 298 300 302 304 305 307 309 310 310 311 312 312 313 315 316 317 317 318 319 319 319
241 243 245 247 250 252 256 258 261 264 267 270 273 277 280 283 286 288 289 290 293 296 298 300 302 304 305 307 309 310 311 312 312 313 314 316 317 317 318 318 319 319 319
240 242 245 248 251 253 256 259 261 264 268 271 274 277 280 283 285 287 288 290 293 296 298 300 302 304 305 307 309 310 311 312 313 314 315 316 317 318 318 318 319 319 319
239 242 245 247 250 253 256 259 262 265 269 271 274 277 279 282 285 287 289 291 294 296 298 301 302 304 306 307 309 310 311 312 313 315 316 317 318 319 319 319 320 320 320
239 241 245 247 249 252 255 259 262 265 268 271 274 276 279 282 285 287 289 291 294 296 298 300 302 304 307 308 310 311 312 313 314 316 317 317 318 319 320 320 320 320 320
240 243 245 246 249 252 256 259 262 265 268 271 274 276 279 282 285 287 290 292 294 296 299 301 303 306 308 309 310 311 312 313 315 316 317 318 319 320 320 320 320 320 320
240 242 244 247 249 252 255 259 262 265 268 271 273 276 280 283 285 289 291 293 295 297 300 302 304 306 308 309 310 312 313 314 316 317 318 320 320 321 320 321 321 320 320
240 242 244 246 249 252 255 258 261 264 267 270 273 276 279 283 287 290 292 294 296 299 301 303 305 307 308 310 311 313 314 316 317 318 319 321 321 321 321 321 321 321 321
240 242 244 246 249 251 255 258 261 264 267 270 274 277 280 284 288 291 293 295 298 299 301 303 305 307 309 310 312 313 315 316 318 319 321 321 321 321 321 321 321 321 321
239 241 243 245 248 252 256 259 262 265 268 271 274 277 281 284 288 291 293 296 298 300 302 304 306 308 310 311 312 314 316 317 318 320 321 322 322 322 321 322 322 322 322
238 241 243 245 249 253 256 258 262 265 268 271 274 278 281 285 288 291 293 296 298 300 303 305 306 308 310 311 312 314 316 317 319 321 322 323 323 323 323 323 324 324 324
238 240 241 244 248 252 255 258 261 265 268 271 274 277 281 285 288 291 294 297 299 301 303 305 307 309 310 311 313 315 317 319 321 322 323 323 324 323 324 324 325 325 325
238 239 240 243 247 251 254 257 261 265 268 271 274 278 282 285 288 292 295 298 300 302 304 306 308 310 311 312 314 316 318 320 321 322 323 324 324 324 325 325 326 326 326
237 238 240 243 246 249 254 258 261 265 268 271 274 278 282 286 290 293 295 298 301 303 306 308 309 311 312 314 316 317 319 321 322 322 323 324 324 324 325 326 326 327 327
237 239 241 242 246 250 254 258 261 264 268 272 276 279 282 286 290 293 296 299 301 304 307 308 309 310 312 314 316 318 319 320 321 322 323 324 324 324 325 325 325 326 326
236 239 241 244 248 251 254 257 260 264 268 273 276 280 283 286 290 294 297 300 302 304 306 308 309 311 312 314 315 317 319 320 320 321 323 324 323 323 323 324 324 326 326
Height
5734 5738 5741 5744 5746 5748 5750 5751 5752 5753 5753 5753 5752 5752 5750 5749 5747 5745 5742 5740 5737 5734 5730 5726 5723 5719 5714 5710 5705 5700 5695 5690 5685 5681 5674 5667 5661 5654 5648 5640 5633 5626 5618
5725 5729 5732 5735 5737 5739 5741 5743 5744 5744 5744 5744 5744 5743 5742 5741 5739 5737 5734 5731 5729 5725 5722 5718 5714 5710 5706 5701 5696 5691 5686 5680 5675 5670 5664 5657 5650 5644 5637 5630 5622 5614 5606
5716 5720 5723 5726 5728 5731 5732 5733 5734 5735 5736 5735 5735 5734 5733 5732 5730 5728 5726 5723 5720 5717 5713 5709 5705 5701 5696 5692 5687 5682 5676 5671 5665 5659 5654 5647 5640 5633 5626 5619 5611 5603 5594
5706 5710 5714 5717 5719 5721 5723 5724 5725 5726 5726 5726 5726 5726 5725 5723 5722 5720 5717 5714 5711 5708 5704 5700 5696 5692 5687 5682 5677 5672 5666 5661 5655 5649 5643 5636 5629 5622 5615 5607 5600 5591 5583
5696 5701 5704 5707 5710 5712 5714 5715 5716 5717 5717 5717 5717 5717 5716 5714 5713 5711 5708 5705 5702 5699 5695 5691 5687 5682 5678 5673 5667 5662 5656 5651 5644 5638 5632 5625 5618 5611 5603 5595 5588 5580 5571
5687 5691 5694 5697 5700 5702 5704 5706 5707 5707 5708 5708 5708 5708 5707 5706 5704 5702 5699 5696 5693 5690 5686 5682 5678 5673 5668 5663 5658 5652 5646 5640 5634 5628 5621 5614 5607 5599 5592 5583 5575 5568 5560
5676 5680 5684 5687 5690 5692 5694 5696 5697 5698 5699 5699 5699 5698 5698 5696 5694 5692 5690 5687 5684 5681 5677 5673 5669 5664 5659 5654 5648 5642 5636 5629 5623 5617 5611 5603 5596 5589 5581 5573 5563 5553 5544
5666 5670 5674 5677 5680 5682 5684 5686 5688 5689 5689 5690 5690 5689 5688 5687 5685 5683 5680 5677 5675 5671 5668 5664 5660 5655 5650 5644 5638 5632 5626 5619 5613 5607 5601 5593 5584 5576 5568 5560 5550 5541 5531
5656 5660 5663 5667 5670 5672 5675 5677 5678 5679 5680 5680 5680 5680 5679 5677 5675 5673 5671 5668 5665 5662 5659 5655 5650 5646 5641 5635 5630 5623 5617 5610 5603 5596 5589 5581 5573 5565 5556 5547 5538 5528 5520
5646 5650 5653 5657 5660 5662 5665 5666 5668 5669 5670 5671 5671 5670 5669 5668 5666 5664 5661 5659 5656 5653 5649 5645 5641 5636 5631 5625 5620 5614 5608 5601 5594 5587 5579 5571 5562 5553 5544 5534 5525 5515 5506
5636 5640 5643 5647 5650 5652 5655 5657 5658 5660 5660 5661 5661 5660 5659 5658 5656 5654 5652 5649 5647 5643 5640 5636 5631 5626 5621 5616 5610 5604 5598 5591 5584 5576 5569 5560 5551 5542 5532 5522 5513 5503 5493
5626 5630 5634 5637 5640 5642 5645 5647 5648 5650 5651 5651 5651 5651 5650 5648 5647 5645 5642 5640 5637 5634 5630 5626 5622 5617 5612 5606 5600 5594 5587 5581 5573 5566 5558 5549 5540 5531 5521 5511 5501 5491 5482
5616 5620 5624 5627 5630 5632 5635 5637 5639 5640 5641 5641 5641 5641 5640 5639 5637 5635 5632 5630 5627 5624 5621 5617 5612 5607 5602 5596 5590 5583 5577 5570 5563 5555 5547 5538 5529 5520 5510 5500 5490 5480 5471
5606 5610 5614 5617 5620 5623 5625 5627 5629 5630 5631 5632 5632 5631 5630 5629 5627 5625 5623 5620 5617 5614 5611 5606 5602 5597 5592 5586 5580 5573 5566 5559 5552 5544 5535 5527 5518 5508 5499 5489 5480 5471 5462
5596 5600 5604 5607 5611 5613 5616 5618 5620 5621 5621 5622 5622 5621 5620 5619 5618 5615 5613 5611 5608 5604 5600 5596 5592 5587 5581 5575 5569 5562 5555 5548 5540 5532 5524 5516 5507 5497 5488 5478 5470 5461 5453
5586 5590 5594 5598 5601 5604 5606 5608 5609 5611 5611 5612 5612 5611 5610 5609 5607 5606 5603 5601 5597 5594 5590 5586 5582 5576 5571 5565 5559 5552 5545 5537 5529 5521 5513 5504 5495 5486 5477 5468 5460 5452 5444
5576 5581 5584 5588 5591 5594 5596 5598 5600 5601 5601 5602 5602 5601 5600 5599 5598 5596 5593 5590 5587 5584 5580 5576 5571 5566 5560 5554 5548 5541 5534 5526 5518 5510 5502 5493 5484 5475 5467 5458 5450 5443 5435
5567 5571 5575 5578 5581 5584 5586 5588 5590 5591 5592 5592 5592 5591 5590 5589 5588 5585 5583 5580 5577 5574 5570 5565 5560 5555 5549 5543 5537 5530 5523 5515 5508 5500 5491 5482 5474 5465 5457 5449 5441 5434 5427
5557 5561 5565 5568 5571 5574 5576 5578 5580 5581 5582 5582 5582 5581 5580 5579 5577 5575 5573 5570 5567 5563 5559 5554 5549 5544 5538 5533 5526 5519 5512 5505 5497 5489 5481 5472 5463 5455 5447 5440 5433 5426 5420
5547 5551 5555 5558 5561 5564 5566 5568 5570 5571 5572 5572 5572 5571 5570 5569 5567 5565 5563 5559 5556 5552 5548 5544 5539 5533 5528 5522 5516 5509 5502 5495 5487 5479 5471 5462 5454 5446 5438 5431 5425 5418 5412
5536 5541 5545 5548 5552 5554 5556 5558 5560 5561 5561 5562 5562 5561 5560 5559 5557 5555 5552 5549 5545 5542 5537 5533 5528 5523 5517 5512 5505 5499 5492 5485 5477 5469 5461 5452 5445 5437 5430 5424 5417 5412 5406
5526 5531 5535 5538 5541 5544 5546 5548 5549 5550 5551 5551 5551 5551 5549 5548 5547 5544 5542 5539 5535 5531 5527 5522 5518 5512 5507 5501 5495 5489 5482 5475 5467 5459 5451 5444 5436 5430 5423 5417 5411 5406 5402
5516 5520 5524 5528 5531 5534 5536 5538 5539 5540 5541 5541 5541 5540 5539 5538 5536 5534 5531 5528 5525 5521 5517 5512 5507 5502 5497 5491 5485 5479 5473 5466 5458 5451 5443 5436 5429 5423 5417 5411 5406 5402 5398
5506 5510 5514 5518 5521 5523 5526 5528 5529 5530 5531 5531 5531 5530 5530 5528 5526 5524 5521 5518 5514 5510 5506 5502 5497 5492 5487 5481 5476 5470 5463 5456 5449 5443 5436 5429 5423 5417 5412 5407 5402 5398 5394
5496 5500 5504 5508 5511 5514 5516 5518 5519 5520 5521 5521 5521 5520 5519 5518 5516 5514 5511 5507 5504 5500 5496 5492 5488 5483 5477 5472 5466 5461 5454 5448 5441 5435 5429 5423 5417 5412 5407 5403 5399 5395 5391
5487 5491 5495 5498 5501 5504 5506 5508 5509 5510 5511 5511 5511 5511 5509 5508 5506 5504 5501 5498 5494 5490 5486 5482 5478 5473 5468 5463 5457 5451 5445 5439 5433 5428 5422 5417 5412 5407 5403 5399 5395 5391 5388